Weather History for KOGA - April, 2013

Change the Weather History Date:

Thursday, April 18, 2013

  Actual Average Record
Temperature  
Mean Temperature 29 °F -  
Max Temperature 34 °F 65 °F 89 °F (1987)
Min Temperature 25 °F 35 °F 15 °F (1953)
Degree Days  
Heating Degree Days 36    
Moisture  
Dew Point 21 °F    
Average Humidity 73    
Maximum Humidity 89    
Minimum Humidity 57    
Precipitation  
Precipitation 0.00 in - - ()
Sea Level Pressure  
Sea Level Pressure 30.05 in    
Wind  
Wind Speed 22 mph (NNW)    
Max Wind Speed 29 mph    
Max Gust Speed 34 mph    
Visibility 10 miles    
Events Snow    
Averages and records for this station are not official NWS values.
T = Trace of Precipitation, MM = Missing Value Source: NWS Daily Summary

Daily Weather History Graph

Daily Weather History Graph

Search for Another Location

Airport or City:

Trip Planner

Search our weather history database for the weather conditions in past years. The results will help you decide how hot, cold, wet, or windy it might be!

Date:

Astronomy

Apr. 18, 2013 Rise Set
Actual Time 6:02 AM MDT 7:30 PM MDT
Civil Twilight 5:33 AM MDT 7:59 PM MDT
Nautical Twilight 4:59 AM MDT 8:34 PM MDT
Astronomical Twilight 4:22 AM MDT 9:11 PM MDT
Moon 12:15 PM MDT (4/18) 1:47 AM MDT (4/18)
Length of Visible Light 14h 25m
Length of Day
13h 27m
First Quarter, 52% of the Moon is Illuminated
Apr 18
First Quarter
Apr 25
Full
May 2
Last Quarter
May 9
New
May 17
First Quarter

Hourly Weather History & Observations

Time (MDT) Temp. Windchill Dew Point Humidity Pressure Visibility Wind Dir Wind Speed Gust Speed Precip Events Conditions
12:15 AM 28.0 °F 12.8 °F 22.8 °F 81% 30.03 in 10.0 mi North 27.6 mph 32.2 mph N/A   Overcast
12:35 AM 28.0 °F 13.0 °F 22.6 °F 80% 30.04 in 10.0 mi North 26.5 mph - N/A   Overcast
12:55 AM 28.0 °F 13.6 °F 22.8 °F 81% 30.04 in 10.0 mi North 24.2 mph 29.9 mph N/A   Overcast
1:15 AM 28.2 °F 13.9 °F 22.8 °F 80% 30.05 in 10.0 mi North 24.2 mph 29.9 mph N/A   Overcast
1:35 AM 28.2 °F 14.5 °F 22.8 °F 80% 30.05 in 10.0 mi North 21.9 mph - N/A   Overcast
1:55 AM 28.0 °F 13.3 °F 22.8 °F 81% 30.05 in 10.0 mi North 25.3 mph 28.8 mph N/A   Overcast
2:15 AM 28.0 °F 13.9 °F 22.3 °F 79% 30.05 in 10.0 mi North 23.0 mph 31.1 mph N/A   Overcast
2:35 AM 28.0 °F 13.0 °F 22.6 °F 80% 30.04 in 10.0 mi North 26.5 mph - N/A   Overcast
2:55 AM 28.2 °F 14.2 °F 22.3 °F 78% 30.03 in 10.0 mi North 23.0 mph 31.1 mph N/A   Overcast
3:35 AM 27.5 °F 13.9 °F 23.0 °F 83% 30.03 in 7.0 mi North 20.7 mph - N/A   Overcast
3:55 AM 27.5 °F 13.5 °F 22.8 °F 83% 30.02 in 5.0 mi North 21.9 mph 29.9 mph N/A   Overcast
4:15 AM 27.3 °F 13.6 °F 22.6 °F 83% 30.03 in 10.0 mi North 20.7 mph 24.2 mph N/A   Overcast
4:35 AM 27.5 °F 15.0 °F 21.7 °F 79% 30.03 in 10.0 mi North 17.3 mph 27.6 mph N/A   Overcast
4:55 AM 26.8 °F 12.6 °F 20.3 °F 77% 30.03 in 10.0 mi North 21.9 mph 34.5 mph N/A   Mostly Cloudy
5:15 AM 26.6 °F 13.1 °F 20.1 °F 77% 30.04 in 10.0 mi NNW 19.6 mph 26.5 mph N/A   Scattered Clouds
5:35 AM 26.2 °F 13.8 °F 20.1 °F 78% 30.04 in 10.0 mi NNW 16.1 mph 24.2 mph N/A   Scattered Clouds
5:55 AM 25.7 °F 14.0 °F 20.1 °F 79% 30.04 in 10.0 mi NNW 13.8 mph 19.6 mph N/A   Scattered Clouds
6:15 AM 25.7 °F 12.7 °F 20.1 °F 79% 30.05 in 10.0 mi NNW 17.3 mph 21.9 mph N/A   Scattered Clouds
6:35 AM 25.7 °F 14.0 °F 20.1 °F 79% 30.05 in 10.0 mi NNW 13.8 mph 23.0 mph N/A   Scattered Clouds
6:55 AM 26.2 °F 12.2 °F 20.1 °F 78% 30.05 in 10.0 mi NNW 20.7 mph 25.3 mph N/A   Mostly Cloudy
7:15 AM 26.6 °F 12.4 °F 19.8 °F 75% 30.05 in 10.0 mi NNW 21.9 mph 28.8 mph N/A   Overcast
7:35 AM 26.6 °F 12.4 °F 19.0 °F 73% 30.05 in 10.0 mi NNW 21.9 mph 31.1 mph N/A   Overcast
7:55 AM 27.0 °F 11.6 °F 19.6 °F 74% 30.05 in 10.0 mi NNW 26.5 mph 32.2 mph N/A   Mostly Cloudy
8:15 AM 27.5 °F 12.3 °F 18.5 °F 69% 30.05 in 10.0 mi NNW 26.5 mph 33.4 mph N/A   Scattered Clouds
8:35 AM 28.0 °F 13.3 °F 19.2 °F 70% 30.05 in 10.0 mi North 25.3 mph 33.4 mph N/A   Scattered Clouds
8:55 AM 27.9 °F 13.4 °F 19.6 °F 71% 30.05 in 10.0 mi North 24.2 mph 34.5 mph N/A   Scattered Clouds
9:15 AM 28.4 °F 13.3 °F 19.9 °F 71% 30.06 in 10.0 mi North 27.6 mph 32.2 mph N/A   Mostly Cloudy
9:35 AM 28.8 °F 15.2 °F 20.1 °F 70% 30.07 in 10.0 mi NNW 21.9 mph 32.2 mph N/A   Overcast
9:55 AM 28.0 °F 13.6 °F 19.8 °F 71% 30.07 in 10.0 mi North 24.2 mph 34.5 mph N/A   Overcast
10:15 AM 28.4 °F 14.1 °F 20.3 °F 72% 30.07 in 10.0 mi NNW 24.2 mph 28.8 mph N/A   Mostly Cloudy
10:35 AM 28.6 °F 14.3 °F 19.9 °F 70% 30.07 in 10.0 mi NNW 24.2 mph 31.1 mph N/A   Mostly Cloudy
10:55 AM 28.9 °F 15.4 °F 20.1 °F 70% 30.07 in 10.0 mi NNW 21.9 mph 28.8 mph N/A   Overcast
11:15 AM 28.8 °F 15.5 °F 20.7 °F 72% 30.07 in 10.0 mi NNW 20.7 mph 28.8 mph N/A   Overcast
11:35 AM 28.8 °F 15.9 °F 20.7 °F 72% 30.07 in 10.0 mi NNW 19.6 mph - N/A Snow Light Snow
11:55 AM 29.3 °F 17.3 °F 21.6 °F 73% 30.06 in 10.0 mi NNW 17.3 mph 23.0 mph N/A   Overcast
12:15 PM 29.3 °F 16.2 °F 22.1 °F 75% 30.06 in 10.0 mi NNW 20.7 mph 26.5 mph N/A Snow Light Snow
12:35 PM 30.7 °F 16.7 °F 21.6 °F 69% 30.05 in 10.0 mi NNW 26.5 mph 29.9 mph N/A   Mostly Cloudy
12:55 PM 30.7 °F 17.5 °F 21.7 °F 69% 30.05 in 10.0 mi NW 23.0 mph 29.9 mph N/A   Overcast
1:15 PM 31.8 °F 19.3 °F 22.6 °F 69% 30.05 in 10.0 mi NNW 21.9 mph 29.9 mph N/A   Overcast
1:35 PM 32.0 °F 19.2 °F 23.2 °F 70% 30.05 in 10.0 mi NNW 23.0 mph 29.9 mph N/A   Overcast
1:55 PM 32.7 °F 19.3 °F 23.2 °F 68% 30.05 in 10.0 mi NW 26.5 mph 33.4 mph N/A   Mostly Cloudy
2:35 PM 32.9 °F 19.6 °F 22.6 °F 66% 30.04 in 10.0 mi NNW 26.5 mph 33.4 mph N/A   Overcast
2:55 PM 32.9 °F 19.1 °F 22.3 °F 65% 30.04 in 10.0 mi NNW 28.8 mph 34.5 mph N/A   Overcast
3:15 PM 32.5 °F 19.6 °F 21.6 °F 64% 30.04 in 10.0 mi NNW 24.2 mph 33.4 mph N/A   Overcast
3:35 PM 32.2 °F 18.9 °F 20.8 °F 63% 30.04 in 10.0 mi NNW 25.3 mph - N/A   Overcast
3:55 PM 32.7 °F 20.1 °F 20.3 °F 60% 30.04 in 10.0 mi NNW 23.0 mph 31.1 mph N/A   Mostly Cloudy
4:15 PM 33.1 °F 20.9 °F 21.2 °F 62% 30.05 in 10.0 mi NNW 21.9 mph 33.4 mph N/A   Mostly Cloudy
4:35 PM 33.6 °F 20.8 °F 21.2 °F 60% 30.05 in 10.0 mi NNW 25.3 mph 31.1 mph N/A   Mostly Cloudy
4:55 PM 33.1 °F 19.8 °F 19.9 °F 59% 30.05 in 10.0 mi NNW 26.5 mph 33.4 mph N/A   Mostly Cloudy
5:15 PM 32.4 °F 18.9 °F 18.5 °F 57% 30.05 in 10.0 mi NNW 26.5 mph 33.4 mph N/A   Scattered Clouds
5:35 PM 32.0 °F 19.5 °F 20.1 °F 62% 30.05 in 10.0 mi NNW 21.9 mph 31.1 mph N/A   Scattered Clouds
5:55 PM 32.9 °F 22.4 °F 21.4 °F 63% 30.06 in 10.0 mi NNW 16.1 mph 28.8 mph N/A   Scattered Clouds
6:15 PM 32.9 °F 21.3 °F 19.2 °F 57% 30.06 in 10.0 mi NNW 19.6 mph 31.1 mph N/A   Scattered Clouds
6:35 PM 32.7 °F 21.4 °F 20.3 °F 60% 30.06 in 10.0 mi NNW 18.4 mph 24.2 mph N/A   Scattered Clouds
6:55 PM 32.5 °F 22.3 °F 21.0 °F 63% 30.07 in 10.0 mi NNW 15.0 mph 24.2 mph N/A   Scattered Clouds
7:15 PM 32.0 °F 22.1 °F 21.6 °F 65% 30.07 in 10.0 mi NNW 13.8 mph - N/A   Scattered Clouds
7:35 PM 31.5 °F 20.1 °F 21.6 °F 67% 30.07 in 10.0 mi NNW 17.3 mph 21.9 mph N/A   Scattered Clouds
8:55 PM 29.3 °F 22.3 °F 22.6 °F 76% 30.10 in 10.0 mi NW 6.9 mph - N/A   Clear
9:35 PM 27.5 °F 21.1 °F 21.7 °F 79% 30.09 in 10.0 mi WNW 5.8 mph - N/A   Clear
9:55 PM 27.0 °F 20.5 °F 21.7 °F 81% 30.08 in 10.0 mi West 5.8 mph - N/A   Clear
10:15 PM 26.1 °F 18.4 °F 22.3 °F 86% 30.08 in 10.0 mi West 6.9 mph - N/A   Clear
10:35 PM 25.2 °F 17.3 °F 21.6 °F 86% 30.07 in 10.0 mi West 6.9 mph - N/A   Clear
10:55 PM 25.5 °F 17.8 °F 21.0 °F 83% 30.07 in 10.0 mi West 6.9 mph - N/A   Clear
11:15 PM 25.5 °F 17.8 °F 21.2 °F 84% 30.06 in 10.0 mi West 6.9 mph - N/A   Clear
11:35 PM 25.2 °F 19.5 °F 21.9 °F 87% 30.06 in 10.0 mi West 4.6 mph - N/A   Clear
11:55 PM 25.5 °F 18.7 °F 22.8 °F 89% 30.05 in 10.0 mi WSW 5.8 mph - N/A   Clear